Regional Weather Roundup
Issued by NWS

Home | Current Version | Previous Version | Graphics & Text | Print | Product List | Glossary On
Versions: 1 2 3 4 5 6 7 8 9 10 11 12 13 14 15 16 17 18 19 20 21 22 23 24 25 26 27 28 29 30 31 32 33 34 35 36 37 38 39 40 41 42 43 44 45 46 47 48 49 50
319
ASUS43 KOAX 311202
RWRNE

WEATHER ROUNDUP FOR NEBRASKA
NATIONAL WEATHER SERVICE OMAHA NE
700 AM CDT TUE MAY 31 2016

NOTES: SATELLITE DATA IS BEING USED TO AUGMENT CLOUD COVER ABOVE
       12000 FEET.
       "FAIR" INDICATES FEW OR NO CLOUDS BELOW 12,000 FEET WITH NO
       SIGNIFICANT WEATHER AND/OR OBSTRUCTIONS TO VISIBILITY.

  * THESE STATIONS DO NOT REPORT WEATHER SUCH AS RAIN...SNOW OR FOG.

NEZ001>004-019>022-054>056-311300-
NEBRASKA PANHANDLE

CITY           SKY/WX    TMP DP  RH WIND       PRES   REMARKS
SCOTTSBLUFF    CLOUDY    50  41  71 NW6       30.11R
6HR MIN TEMP:  49; 6HR MAX TEMP:  55; 6HR PCP: TRACE;

ALLIANCE       CLOUDY    49  43  80 NW5       30.08R
6HR MIN TEMP:  49; 6HR MAX TEMP:  51; 6HR PCP:  0.03;

CHADRON        CLOUDY    47  41  80 W7        30.08R
6HR MIN TEMP:  46; 6HR MAX TEMP:  52;

SIDNEY         CLOUDY    48  45  89 W7        30.12R
6HR MIN TEMP:  47; 6HR MAX TEMP:  54; 6HR PCP:  0.02;

$$

NEZ057>060-069>072-079>082-311300-
SOUTHWEST NEBRASKA

CITY           SKY/WX    TMP DP  RH WIND       PRES   REMARKS
NORTH PLATTE   PTCLDY    51  46  83 W8        30.05R
6HR MIN TEMP:  50; 6HR MAX TEMP:  59;

IMPERIAL       PTCLDY    52  47  83 N5        30.08R
6HR MIN TEMP:  51; 6HR MAX TEMP:  58;

LEXINGTON      CLOUDY    54  49  85 NW5       30.02R
MCCOOK         CLOUDY    53  49  86 N7        30.04R
6HR MIN TEMP:  53; 6HR MAX TEMP:  57;

$$

NEZ005>010-023>029-035>040-094-311300-
NORTH CENTRAL NEBRASKA

CITY           SKY/WX    TMP DP  RH WIND       PRES   REMARKS
VALENTINE      CLEAR     49  44  83 NW3       30.02R
6HR MIN TEMP:  45; 6HR MAX TEMP:  56;

AINSWORTH      CLEAR     51  46  85 W5        30.01S
BROKEN BOW     PTCLDY    53  48  83 N6        30.01R
6HR MIN TEMP:  53; 6HR MAX TEMP:  61;

ORD            CLOUDY    54  48  80 NW9       29.98R
6HR MIN TEMP:  54; 6HR MAX TEMP:  63; 6HR PCP: TRACE;

$$

NEZ041-046>049-061>064-073>077-083>087-311300-
SOUTH CENTRAL NEBRASKA

CITY           SKY/WX    TMP DP  RH WIND       PRES   REMARKS
GRAND ISLAND   CLOUDY    60  56  86 NW14      29.98R
6HR MIN TEMP:  60; 6HR MAX TEMP:  62; 6HR PCP:  0.07;

AURORA         CLOUDY    61  61 100 NW5       29.97R
HASTINGS       CLOUDY    58  56  93 N9        29.98R
6HR MIN TEMP:  57; 6HR MAX TEMP:  61; 6HR PCP:  0.15;

KEARNEY *      MOCLDY    57  52  82 N12       30.01R
YORK           CLOUDY    61  59  94 NW6       29.96R
$$

NEZ011>018-030>034-042>045-311300-
NORTHEAST NEBRASKA

CITY           SKY/WX    TMP DP  RH WIND       PRES   REMARKS
NORFOLK        MOCLDY    59  55  87 NW15      29.92R
6HR MIN TEMP:  59; 6HR MAX TEMP:  61; 6HR PCP:  0.17;

ALBION         CLOUDY    56  53  90 NW13G20   29.96S
BLAIR          CLOUDY    64  59  83 NE9       29.90S
FREMONT        CLOUDY    62  58  87 CALM      29.91R
TEKAMAH        LGT RAIN  63  60  90 NE7       29.89F
6HR MIN TEMP:  63; 6HR MAX TEMP:  69; 6HR PCP:  0.01;

$$

NEZ050>053-065>068-078-088>093-311300-
SOUTHEAST NEBRASKA

CITY           SKY/WX    TMP DP  RH WIND       PRES   REMARKS
LINCOLN        CLOUDY    65  58  78 W7        29.94R
6HR MIN TEMP:  65; 6HR MAX TEMP:  72; 6HR PCP: TRACE;

OMAHA EPPLEY   CLOUDY    67  62  84 N7        29.90R
6HR MIN TEMP:  66; 6HR MAX TEMP:  71;

BEATRICE       CLOUDY    61  59  92 W6        29.93S
FALLS CITY     LGT RAIN  65  61  87 W8        29.91R
6HR MIN TEMP:  64; 6HR MAX TEMP:  68; 6HR PCP: TRACE;

NEBRASKA CITY  PTSUNNY   64  64 100 SW10      29.92R
PLATTSMOUTH    PTSUNNY   65  64  96 S7        29.91R
$$

NEZ044-045-051>053-067-311300-
OMAHA AREA

CITY           SKY/WX    TMP DP  RH WIND       PRES   REMARKS
OMAHA EPPLEY   CLOUDY    67  62  84 N7        29.90R
6HR MIN TEMP:  66; 6HR MAX TEMP:  71;

BLAIR          CLOUDY    64  59  83 NE9       29.90S
FREMONT        CLOUDY    62  58  87 CALM      29.91R
PLATTSMOUTH    PTSUNNY   65  64  96 S7        29.91R
WAHOO          CLOUDY    64  59  85 W5        29.92R
$$




USA.gov is the U.S. government's official web portal to all federal, state and local government web resources and services.